User: anonymous   Login
Location: Unspecified
(0.0000°N, 0.0000°E)
Time: 12:43:40
(UTC+00:00)
Language:

TIMED - Orbit

View from above orbital plane
View from above orbital plane
View from above satellite
View from above satellite

Ground track
Ground track

The orbit data is extracted from the following two-line orbital elements,

1 26998U 01055B   18200.56790725 +.00000037 +00000-0 +80940-5 0  9993
2 26998 074.0710 244.3171 0001418 235.3779 124.7268 14.88033352900531
Epoch (UTC): 19 July 2018 13:37:47
Eccentricity: 0.0001418
inclination: 74.0710°
perigee height: 603 km
apogee height: 605 km
right ascension of ascending node: 244.3171°
argument of perigee: 235.3779°
revolutions per day: 14.88033352
mean anomaly at epoch: 124.7268°
orbit number at epoch: 90053

The dashed part of the orbit path shows where the satellite is in the earth's shadow,  

DLR